www.pogodaiklimat.ru

Погода и климат >> Архив погоды >> Индонезия >> Чуруг


ПОГОДА в Чуруге

  • Прогноз погоды в Чуруге
  • Монитор погоды в Чуруге

АРХИВ ПОГОДЫ в Чуруге

Время (UTC), дата Ветер
(напр.,м/с)
 
Видим.   Явления Облачность Т
(С)
Тd
(С)
f
(%)
Тe
(С)
Тes
(С)
Комфортность P
(гПа)
Po
(гПа)
Тmin
(С)
Tmax
(С)
R
(мм)
R24
(мм)
S
(см)
06 17.07 штиль 0 10 км 6/5 600 м
[Cu hum As trans Ci fib]
+32.2 +19.0 46 +38 +47 очень
душно
1009.9 1004.6
09 17.07 СВ 2 10 км 8/4 540 м
[Cu med, cong As op Ci sp]
+31.3 +19.9 51 +38 +39 очень
душно
1008.0 1002.7
12 17.07 СВ 1 7000 м 8/3 540 м
[Sc As op Ci sp]
+27.5 +20.8 67 +34 +34 очень
душно
1009.1 1003.8 +33.4
15 17.07 ЮЗ 3 3900 м мгла 8/4 540 м
[Sc As trans Ci fib]
+23.8 +20.7 83 +30 +30 очень
душно
1010.6 1005.3
18 17.07 штиль 0 1900 м дымка 6/4 600 м
[Sc As trans Ci fib]
+22.9 +20.5 86 +30 +30 очень
душно
1010.8 1005.6
21 17.07 штиль 0 2900 м дымка 6/3 600 м
[Sc As trans Ci fib]
+20.6 +19.9 96 +25 +25 комфорт 1010.4 1005.2
00 18.07 штиль 0 1900 м мгла 5/1 600 м
[Sc Ci fib]
+19.6 +18.8 95 +22 +23 комфорт 1010.9 1005.6 +19.6
03 18.07 Ю 2 4300 м мгла 5/3 600 м
[Sc As trans Ci fib]
+29.0 +21.2 63 +37 +45 очень
душно
1010.9 1005.6
06 18.07 СВ 4 10 км мгла 8/3 540 м
[Cu med, cong As op Ci sp]
+33.4 +21.7 50 +41 +46 опасность
перегрева
1008.3 1003.1
12 18.07 СВ 3 10 км 6/3 600 м
[Sc As trans Ci fib]
+27.8 +20.4 64 +34 +34 очень
душно
1008.8 1003.5 +33.6
15 18.07 ЮЗ 2 4200 м мгла 9/4 540 м
[Sc As trans Ci fib]
+23.9 +21.1 84 +30 +30 очень
душно
1010.4 1005.1
18 18.07 штиль 0 2900 м дымка 9/5 540 м
[Sc As trans Ci fib]
+22.5 +21.6 95 +30 +30 очень
душно
1010.5 1005.2
21 18.07 штиль 0 2600 м дымка 9/5 540 м
[Sc As trans Ci fib]
+21.4 +20.7 96 +27 +27 душно 1009.1 1003.8
00 19.07 штиль 0 3800 м дымка 9/5 540 м
[Sc Ac As Ci sp]
+21.2 +20.6 96 +26 +27 душно 1010.2 1004.9 +19.9
03 19.07 СЗ 2 8000 м 6/3 600 м
[Sc As op Ci sp]
+30.1 +21.6 60 +38 +46 очень
душно
1010.8 1005.5
06 19.07 В 3 7000 м 9/5 540 м
[Cu med, cong As op Ci sp]
+31.4 +21.3 55 +39 +44 очень
душно
1009.1 1003.9
09 19.07 З 2 4000 м 9/5 600 м
[Sc As op Ci sp]
+31.0 +23.0 62 +41 +42 опасность
перегрева
1008.1 1002.8
12 19.07 З 2 6000 м 9/4 600 м
[Sc As op Ci sp]
+27.6 +23.2 77 +37 +37 очень
душно
1009.3 1004.0 +33.8
15 19.07 штиль 0 6000 м 9/4 600 м
[Sc As op Ci sp]
+25.8 +23.8 89 +35 +35 очень
душно
1010.6 1005.3
18 19.07 ЮЗ 2 6000 м 9/3 600 м
[Sc Ac trans Ci sp]
+25.2 +23.8 92 +34 +34 очень
душно
1010.4 1005.1
21 19.07 штиль 0 5000 м мгла 9/3 600 м
[Sc Ac trans Ci sp]
+24.8 +23.3 91 +33 +33 очень
душно
1010.6 1005.3
00 20.07 штиль 0 2700 м мгла 9/5 600 м
[Sc Ac trans Ci sp]
+25.0 +23.6 92 +34 +34 очень
душно
1011.6 1006.3 +20.6
03 20.07 ЮЗ 1 3000 м мгла 8/4 540 м
[Sc As op Ci sp]
+28.6 +23.6 74 +39 +45 очень
душно
1011.3 1006.0
06 20.07 СВ 4 7000 м 9/5 540 м
[Sc As op Ci sp]
+32.8 +22.6 55 +42 +46 опасность
перегрева
1008.9 1003.6
09 20.07 С 4 5000 м мгла 8/3 600 м
[Sc As trans Ci sp]
+30.9 +23.7 66 +42 +43 опасность
перегрева
1007.6 1002.3
12 20.07 З 2 6000 м 6/1 600 м
[Sc As trans Ci sp]
+27.8 +22.8 74 +37 +37 очень
душно
1009.1 1003.8 +32.8
15 20.07 ЮЗ 2 4000 м мгла 9/4 540 м
[Sc As trans Ci sp]
+26.2 +23.3 84 +35 +35 очень
душно
1010.6 1005.3
18 20.07 З 2 4000 м мгла 9/4 540 м
[Sc As trans Ci sp]
+25.0 +23.6 92 +34 +34 очень
душно
1010.4 1005.1
21 20.07 ЮВ 2 3900 м дымка 9/4 540 м
[Sc As trans Ci sp]
+23.8 +23.3 97 +32 +32 очень
душно
1009.6 1004.3
00 21.07 штиль 0 1300 м дымка 10/4 540 м
[Sc As trans]
+23.0 +22.4 96 +31 +32 очень
душно
1010.1 1004.8 +22.6
03 21.07 ЮЗ 2 6000 м 5/1 600 м
[Cu hum As trans Ci fib]
+30.4 +23.3 66 +41 +50 опасность
перегрева
1010.4 1005.1
06 21.07 С 3 10 км 6/4 600 м
[Cu hum As trans Ci fib]
+33.5 +22.7 53 +43 +50 опасность
перегрева
1008.7 1003.4
09 21.07 С 5 10 км 6/3 600 м
[Sc As trans Ci fib]
+31.8 +22.7 59 +42 +43 опасность
перегрева
1007.9 1002.6
12 21.07 СЗ 2 6000 м 6/3 600 м
[Sc As trans Ci fib]
+28.6 +23.1 72 +38 +38 очень
душно
1009.5 1004.2 +33.8
15 21.07 ЮЗ 2 5000 м мгла 9/5 540 м
[Sc As op Ci sp]
+26.3 +23.6 85 +36 +36 очень
душно
1011.7 1006.5
18 21.07 штиль 0 2500 м мгла 4/0
[As op Ci sp]
+25.2 +23.8 92 +34 +34 очень
душно
1011.3 1006.1
21 21.07 ЮЗ 2 2500 м дымка 4/0 300 м
[As op Ci sp]
+23.8 +23.3 97 +32 +32 очень
душно
1010.7 1005.4
00 22.07 З 1 1500 м мгла 4/0
[As op Ci sp]
+24.4 +23.5 95 +33 +34 очень
душно
1011.2 1006.0 +23.3
03 22.07 штиль 0 6000 м 5/3 600 м
[Sc As op Ci sp]
+29.5 +23.9 72 +41 +52 опасность
перегрева
1011.3 1006.0
06 22.07 СВ 1 7000 м 8/4 540 м
[Cu hum As op Ci sp]
+33.3 +23.2 56 +44 +52 опасность
перегрева
1009.1 1003.8
09 22.07 С 4 8000 м 9/5 540 м
[Sc As trans Ci fib]
+31.2 +22.8 61 +41 +42 опасность
перегрева
1008.3 1003.0
12 22.07 С 2 7000 м 8/3 600 м
[Sc As trans Ci sp]
+28.0 +23.0 74 +37 +37 очень
душно
1009.7 1004.4 +33.6
15 22.07 штиль 0 2000 м дымка 9/4 540 м
[Sc As trans Ci sp]
+24.5 +23.7 95 +33 +33 очень
душно
1012.2 1006.9
18 22.07 штиль 0 2000 м дымка 10/5 540 м
[Sc As trans]
+23.0 +22.2 95 +31 +31 очень
душно
1011.9 1006.6
21 22.07 штиль 0 3000 м дымка 10/5 540 м
[Sc As trans]
+22.5 +22.1 98 +30 +30 очень
душно
1010.7 1005.4
00 23.07 штиль 0 1700 м дымка 8/4 600 м
[Sc Ac trans Ci fib]
+22.2 +21.4 95 +29 +30 очень
душно
1011.7 1006.4 +21.8
06 23.07 В 3 10 км 8/4 540 м
[Cu med, cong As op Ci fib]
+33.7 +21.4 49 +42 +48 опасность
перегрева
1009.6 1004.3
09 23.07 С 7 10 км 4/0
[Ac trans Ci sp]
+32.2 +19.8 48 +38 +39 очень
душно
1008.4 1003.1
12 23.07 СВ 3 10 км 4/0
[Ac trans Ci sp]
+27.5 +19.2 61 +33 +33 очень
душно
1010.9 1005.6 +33.8
15 23.07 ЮЗ 2 4000 м мгла 6/1 750 м
[Sc Ac trans Ci sp]
+22.8 +18.5 77 +29 +29 очень
душно
1013.0 1007.7
18 23.07 штиль 0 4000 м мгла 6/3 750 м
[Sc Ac trans Ci sp]
+23.0 +20.3 85 +30 +30 очень
душно
1012.9 1007.6
21 23.07 штиль 0 3800 м дымка 8/4 600 м
[Sc Ac trans Ci sp]
+22.2 +21.5 96 +29 +29 очень
душно
1012.0 1006.7
00 24.07 штиль 0 2700 м дымка 8/4 600 м
[Sc Ac trans Ci sp]
+21.3 +20.5 95 +27 +27 душно 1013.0 1007.8 +20.6
03 24.07 С 2 7000 м 4/0
[As trans Ci sp]
+29.9 +21.3 60 +38 +49 очень
душно
1014.3 1009.0

 

Местоположение метеостанции Чуруг (Индонезия): широта -6.23 долгота 106.65 высота над уровнем моря 46 м.

В архиве по умолчанию представлена погода в Чуруге за последнюю неделю. Архивные данные за месяц целиком и за предыдущие месяцы, начиная с января 2011 года, Вы можете получить, выбрав интересующий диапазон дат из раскрывающегося списка и нажав кнопку "Ввод!".


*Определитесь, кто Вы:
робот инопланетянин человек

Внимание! Время в таблицах - всемирное. Для получения местного времени необходимо прибавить поправку, которая равна 7 ч.

Смотрите также архив погоды в соседних городах и на ближайших метеорологических станциях:

Погода в Аэропорту Сукарно-Хатта (Индонезия) (12 км)
Погода в Джакарте (Индонезия) (21 км)
Погода в Джакарта порту (Индонезия) (28 км)
Погода в Серанге (Индонезия) (59 км)
Погода в Цитеко (Индонезия) (61 км)
Погода в Бандунге (Индонезия) (127 км)
Погода в Сиребоне (Индонезия) (187 км)
Погода в Танджунгкаранге (Индонезия) (206 км)
Погода в Тегале (Индонезия) (285 км)
Погода в Чилачапе (Индонезия) (309 км)

Пояснения к столбцам:

Ветер - указаны скорость ветра в м/с - средняя за 10 мин, порывы в срок и между сроками (в фигурных скобках) и направление, откуда дует ветер: С - северный, СВ - северо-восточный, В - восточный, ЮВ - юго-восточный, Ю - южный, ЮЗ - юго-западный, З - западный, СЗ - северо-западный.
Видимость - горизонтальная дальность видимости в метрах или километрах. При видимости от 1 до 10 км при отсутствии осадков обычно наблюдается дымка, при ухудшении видимости до 1 км и менее - туман. В сухую погоду видимость может ухудшаться дымом, пылью или мглою.
Явления - указаны атмосферные явления, наблюдавшиеся в срок или в последний час перед сроком; фигурными скобками обозначены явления, наблюдавшиеся между сроками (за 1-3 часа до срока); квадратными скобками обозначены град или гололедные отложения с указанием их диаметра в мм.
Облачность - указаны через наклонную черту общая и нижняя облачность в баллах и высота нижней границы облаков в метрах; квадратными скобками обозначены формы облаков: Ci - перистые, Cs - перисто-слоистые, Cc - перисто-кучевые, Ac - высококучевые, As - высокослоистые, Sc - слоисто-кучевые, Ns - слоисто-дождевые, Cu - кучевые, Cb - кучево-дождевые. Подробнее классификацию облаков см. в Атласе облаков (PDF).
T - Температура воздуха - температура, измеренная на высоте 2 м над землей.
Td - Температура точки росы - температура, при понижении до которой содержащийся в воздухе водяной пар достигнет насыщения.
f - Относительная влажность воздуха - влажноcть воздуха, измеренная на высоте 2 м над землей.
Te - Эффективная температура - температура, которую ощущает одетый по сезону человек в тени. Характеристика душности погоды. При расчете учитывается влияние влажности воздуха и скорости ветра на теплоощущения человека.
Tes - Эффективная температура на солнце - температура, которую ощущает человек, с поправкой на солнечный нагрев. Характеристика знойности погоды. Зависит от высоты солнца над горизонтом, облачности и скорости ветра. Ночью, в пасмурную погоду, а также при ветре 12 м/с и более поправка равна нулю.
P - Атмосферное давление - приведенное к уровню моря атмосферное давление.
Po - Атмосферное давление - измеренное на уровне метеостанции атмосферное давление.
Tmin - Минимальная температура - минимум температуры воздуха на высоте 2 м над землей.
Tmax - Максимальная температура - максимум температуры воздуха на высоте 2 м над землей.
R - Количество осадков - Количество выпавших осадков за период времени, мм. При наведении курсора мыши на число - период времени, за который выпало указанное количество осадков.
R24 - Количество осадков - Количество выпавших осадков за 24 часа, мм.
S - Снежный покров - Высота снежного покрова, см. При наведении курсора мыши на число - состояние снежного покрова и степень покрытия местности в баллах.